EW5742 Weather Reports


time (UTC)temp
F
wind
direction
speed
knots
gust
knots
rain 1hr
in
rain 24hr
in
rain mn
in
humidity
%
barometer
mb
20190624091524 66 23 0.0 0.0 0.00 0.00 0.00 95 1013.2
20190624090016 66 23 0.0 0.0 0.00 0.00 0.00 95 1013.1
20190624084519 66 23 0.0 0.0 0.00 0.00 0.00 95 1013.2
20190624083041 66 23 0.0 0.0 0.00 0.00 0.00 95 1013.0
20190624081512 67 23 0.0 0.0 0.00 0.00 0.00 94 1013.2
20190624080010 67 23 0.0 0.0 0.00 0.00 0.00 94 1013.4
20190624074536 67 23 0.0 0.0 0.00 0.00 0.00 94 1013.6
20190624073014 67 23 0.0 0.0 0.00 0.00 0.00 93 1013.4
20190624071505 68 23 0.0 0.0 0.00 0.00 0.00 93 1013.6
20190624070123 68 23 0.0 0.0 0.00 0.00 0.00 92 1013.6
20190624064740 68 23 0.0 0.0 0.00 0.00 0.00 92 1013.8
20190624063142 69 23 0.0 0.0 0.00 0.00 0.00 92 1014.1
20190624061623 69 23 0.0 0.0 0.00 0.00 0.00 92 1014.1
20190624060209 69 23 0.0 0.0 0.00 0.00 0.00 91 1014.3
20190624054640 69 23 0.0 0.0 0.00 0.00 0.00 91 1014.3
20190624053149 69 23 0.0 0.0 0.00 0.00 0.00 91 1014.3
20190624051636 69 8 0.0 0.0 0.00 0.00 0.00 90 1014.5
20190624050144 69 8 0.0 0.0 0.00 0.00 0.00 91 1014.5
20190624044604 69 324 0.0 0.0 0.00 0.00 0.00 90 1015.0
20190624043151 70 324 0.0 0.0 0.00 0.00 0.00 90 1015.2
20190624041623 70 324 0.0 0.0 0.00 0.00 0.00 88 1015.2
20190624040107 70 324 0.0 0.0 0.00 0.00 0.00 88 1015.4
20190624034612 71 323 0.0 0.0 0.00 0.00 0.00 88 1015.8
20190624033059 71 324 0.0 0.0 0.00 0.00 0.00 88 1015.8
20190624031622 71 323 0.0 0.0 0.00 0.00 0.00 89 1015.9
20190624030055 72 236 0.0 0.0 0.00 0.00 0.00 89 1015.8
20190624024601 73 234 0.0 0.0 0.00 0.00 0.00 87 1015.5
20190624023212 74 233 0.0 0.0 0.00 0.00 0.00 86 1015.4
20190624021544 74 233 0.0 0.0 0.00 0.00 0.00 85 1015.5
20190624020056 75 233 0.0 0.9 0.00 0.00 0.00 83 1015.5
20190624014603 76 196 0.0 2.6 0.00 0.00 0.00 82 1015.2
20190624013042 76 129 0.0 0.9 0.00 0.00 0.00 79 1015.1
20190624011542 76 156 0.0 3.5 0.00 0.00 0.00 74 1015.0
20190624010107 77 114 0.0 1.7 0.00 0.00 0.00 72 1015.1
20190624004619 77 122 0.0 1.7 0.00 0.00 0.00 71 1015.1
20190624003056 77 103 0.0 1.7 0.00 0.00 0.00 71 1015.3
20190624001532 77 132 0.0 0.9 0.00 0.00 0.00 71 1015.3
20190624000029 77 180 0.0 2.6 0.00 0.00 0.00 70 1015.3
20190623234532 78 103 0.0 3.5 0.00 0.00 0.00 70 1015.3
20190623233030 78 151 0.0 4.3 0.00 0.00 0.00 69 1015.3
20190623231527 78 129 0.0 1.7 0.00 0.00 0.00 70 1015.4
20190623230022 78 165 0.0 0.9 0.00 0.00 0.00 69 1015.5
20190623224521 78 113 0.0 0.9 0.00 0.00 0.00 68 1015.8
20190623223052 78 122 0.0 4.3 0.00 0.00 0.00 67 1015.7
20190623221513 79 86 0.0 6.1 0.00 0.00 0.00 65 1015.6
20190623220039 79 119 0.0 3.5 0.00 0.00 0.00 64 1015.7
20190623214541 80 111 0.9 6.1 0.00 0.00 0.00 63 1015.7
20190623213106 79 92 0.9 6.1 0.00 0.00 0.00 62 1015.8
20190623211512 79 60 0.9 5.2 0.00 0.00 0.00 61 1015.9
20190623210009 80 113 0.9 4.3 0.00 0.00 0.00 60 1016.0
20190623204538 79 154 0.9 7.0 0.00 0.00 0.00 60 1016.1
20190623203013 79 93 0.9 6.1 0.00 0.00 0.00 60 1016.1
20190623201508 80 103 1.7 5.2 0.00 0.00 0.00 61 1016.0
20190623200020 79 60 0.9 4.3 0.00 0.00 0.00 62 1016.3
20190623194508 79 142 0.0 3.5 0.00 0.00 0.00 61 1016.4
20190623193003 80 121 0.9 6.1 0.00 0.00 0.00 61 1016.6
20190623191501 80 134 3.5 8.7 0.00 0.00 0.00 60 1016.7
20190623190222 79 178 0.0 4.3 0.00 0.00 0.00 61 1016.8
20190623184651 80 146 0.0 3.5 0.00 0.00 0.00 60 1017.0
20190623183119 80 149 0.9 3.5 0.00 0.00 0.00 58 1017.1
20190623181645 82 20 0.0 5.2 0.00 0.00 0.00 56 1017.1
20190623180141 81 229 3.5 7.8 0.00 0.00 0.00 56 1017.2
20190623174647 81 179 0.9 4.3 0.00 0.00 0.00 57 1017.3
20190623173216 80 122 2.6 4.3 0.00 0.00 0.00 57 1017.5
20190623171616 80 258 0.0 4.3 0.00 0.00 0.00 59 1017.6
20190623170320 79 152 0.0 3.5 0.00 0.00 0.00 60 1017.7
20190623164635 79 111 0.9 5.2 0.00 0.00 0.00 58 1017.8
20190623163121 80 144 0.9 7.8 0.00 0.00 0.00 56 1017.8
20190623161639 81 234 0.9 8.7 0.00 0.00 0.00 55 1017.8
20190623160125 81 215 2.6 7.0 0.00 0.00 0.00 52 1017.7
20190623154551 80 152 0.0 4.3 0.00 0.00 0.00 59 1017.7
20190623153122 79 110 2.6 7.0 0.00 0.00 0.00 58 1017.8
20190623151602 78 113 0.0 5.2 0.00 0.00 0.00 59 1017.7
20190623150234 79 67 0.0 4.3 0.00 0.00 0.00 59 1017.9
20190623144545 79 80 0.0 4.3 0.00 0.00 0.00 58 1017.8
20190623143116 77 84 0.9 5.2 0.00 0.00 0.00 59 1017.7
20190623141553 77 68 0.9 4.3 0.00 0.00 0.00 61 1018.0
20190623140113 76 122 0.0 1.7 0.00 0.00 0.00 63 1017.9
20190623134604 76 120 0.9 5.2 0.00 0.00 0.00 65 1018.0
20190623133107 76 117 0.0 5.2 0.00 0.00 0.00 66 1018.0
20190623131542 75 119 0.9 5.2 0.00 0.00 0.00 67 1017.8
20190623130036 75 84 0.9 4.3 0.00 0.00 0.00 68 1017.8
20190623124529 75 75 0.0 3.5 0.00 0.00 0.00 69 1017.8
20190623123042 74 99 0.0 4.3 0.00 0.00 0.00 70 1017.8
20190623121612 74 81 0.0 3.5 0.00 0.00 0.00 71 1017.7
20190623120046 73 66 0.0 1.7 0.00 0.00 0.00 72 1017.7
20190623114604 73 103 0.0 1.7 0.00 0.00 0.00 73 1017.7
20190623113030 72 82 0.0 0.9 0.00 0.00 0.00 75 1017.5
20190623111556 72 44 0.0 0.9 0.00 0.00 0.00 76 1017.4
20190623110047 72 57 0.0 0.0 0.00 0.00 0.00 76 1017.4
20190623104602 72 36 0.0 0.0 0.00 0.00 0.00 75 1017.2
20190623103014 72 69 0.0 0.0 0.00 0.00 0.00 75 1017.1
20190623101523 72 25 0.0 0.0 0.00 0.00 0.00 75 1016.9
20190623100020 71 20 0.0 0.9 0.00 0.00 0.00 74 1016.6
20190623094554 71 46 0.0 0.0 0.00 0.00 0.00 74 1016.8
20190623093034 71 46 0.0 0.0 0.00 0.00 0.00 74 1016.7